| time (UTC) | temp C | wind direction | speed KPH | gust KPH | rain 1hr cm | rain 24hr cm | rain mn cm | humidity % | barometer mb |
| 20260507015018 | 13 | 30 | 1.6 | 1.6 | 0.00 | 0.00 | 0.00 | 81 | 1018.8 |
| 20260507014514 | 13 | 15 | 0.0 | 1.6 | 0.00 | 0.00 | 0.00 | 80 | 1018.9 |
| 20260507014010 | 13 | 34 | 1.6 | 1.6 | 0.00 | 0.00 | 0.00 | 80 | 1018.9 |
| 20260507013507 | 13 | 13 | 0.0 | 1.6 | 0.00 | 0.00 | 0.00 | 80 | 1018.8 |
| 20260507013004 | 14 | 15 | 1.6 | 3.2 | 0.00 | 0.00 | 0.00 | 79 | 1018.8 |
| 20260507012501 | 14 | 40 | 1.6 | 1.6 | 0.00 | 0.00 | 0.00 | 78 | 1018.7 |
| 20260507011957 | 14 | 16 | 0.0 | 0.0 | 0.00 | 0.00 | 0.00 | 79 | 1018.8 |
| 20260507011455 | 14 | 7 | 0.0 | 1.6 | 0.00 | 0.00 | 0.00 | 78 | 1018.8 |
| 20260507010950 | 14 | 37 | 0.0 | 0.0 | 0.00 | 0.00 | 0.00 | 78 | 1018.8 |
| 20260507010445 | 14 | 32 | 1.6 | 3.2 | 0.00 | 0.00 | 0.00 | 78 | 1018.8 |
| 20260507005942 | 15 | 32 | 1.6 | 1.6 | 0.00 | 0.00 | 0.00 | 77 | 1019.0 |
| 20260507005439 | 15 | 35 | 0.0 | 0.0 | 0.00 | 0.00 | 0.00 | 76 | 1018.9 |
| 20260507004935 | 15 | 357 | 0.0 | 1.6 | 0.00 | 0.00 | 0.00 | 77 | 1018.8 |
| 20260507004432 | 15 | 35 | 0.0 | 0.0 | 0.00 | 0.00 | 0.00 | 76 | 1018.8 |
| 20260507003930 | 15 | 352 | 0.0 | 0.0 | 0.00 | 0.00 | 0.00 | 76 | 1019.0 |
| 20260507003424 | 15 | 18 | 0.0 | 0.0 | 0.00 | 0.00 | 0.00 | 75 | 1018.8 |
| 20260507002920 | 15 | 24 | 0.0 | 0.0 | 0.00 | 0.00 | 0.00 | 75 | 1018.9 |
| 20260507002417 | 15 | 19 | 0.0 | 1.6 | 0.00 | 0.00 | 0.00 | 75 | 1019.0 |
| 20260507001914 | 15 | 13 | 0.0 | 0.0 | 0.00 | 0.00 | 0.00 | 76 | 1018.9 |
| 20260507001411 | 15 | 54 | 0.0 | 0.0 | 0.00 | 0.00 | 0.00 | 76 | 1018.9 |
| 20260507000908 | 15 | 300 | 4.8 | 4.8 | 0.00 | 0.00 | 0.00 | 76 | 1018.7 |
| 20260507000405 | 15 | 303 | 1.6 | 3.2 | 0.00 | 0.00 | 0.00 | 76 | 1018.9 |
| 20260506235859 | 15 | 1 | 0.0 | 0.0 | 0.00 | 0.00 | 0.00 | 76 | 1019.0 |
| 20260506235357 | 15 | 352 | 0.0 | 0.0 | 0.00 | 0.00 | 0.00 | 76 | 1018.9 |
| 20260506234852 | 15 | 29 | 0.0 | 0.0 | 0.00 | 0.00 | 0.00 | 76 | 1019.1 |
| 20260506234350 | 14 | 356 | 3.2 | 4.8 | 0.00 | 0.00 | 0.00 | 78 | 1019.2 |
| 20260506233848 | 15 | 43 | 0.0 | 0.0 | 0.00 | 0.00 | 0.00 | 79 | 1019.3 |
| 20260506233343 | 15 | 93 | 3.2 | 4.8 | 0.00 | 0.00 | 0.00 | 79 | 1019.1 |
| 20260506232841 | 15 | 11 | 0.0 | 0.0 | 0.00 | 0.00 | 0.00 | 77 | 1018.9 |
| 20260506232336 | 15 | 326 | 0.0 | 1.6 | 0.00 | 0.00 | 0.00 | 78 | 1019.1 |
| 20260506231833 | 14 | 318 | 3.2 | 3.2 | 0.00 | 0.00 | 0.00 | 79 | 1019.0 |
| 20260506231331 | 15 | 307 | 1.6 | 3.2 | 0.00 | 0.00 | 0.00 | 80 | 1019.2 |
| 20260506230828 | 15 | 13 | 0.0 | 0.0 | 0.00 | 0.00 | 0.00 | 79 | 1019.4 |
| 20260506230325 | 15 | 2 | 1.6 | 1.6 | 0.00 | 0.00 | 0.00 | 79 | 1019.0 |
| 20260506225820 | 15 | 12 | 1.6 | 1.6 | 0.00 | 0.00 | 0.00 | 80 | 1019.0 |
| 20260506225318 | 15 | 344 | 0.0 | 0.0 | 0.00 | 0.00 | 0.00 | 80 | 1019.1 |
| 20260506224815 | 15 | 11 | 0.0 | 0.0 | 0.00 | 0.00 | 0.00 | 79 | 1019.3 |
| 20260506224312 | 15 | 14 | 0.0 | 0.0 | 0.00 | 0.00 | 0.00 | 79 | 1019.4 |
| 20260506223809 | 14 | 68 | 3.2 | 3.2 | 0.00 | 0.00 | 0.00 | 79 | 1019.7 |
| 20260506223303 | 14 | 13 | 1.6 | 1.6 | 0.00 | 0.00 | 0.00 | 79 | 1019.6 |
| 20260506222801 | 15 | 356 | 1.6 | 1.6 | 0.00 | 0.00 | 0.00 | 78 | 1019.6 |
| 20260506222256 | 15 | 8 | 0.0 | 1.6 | 0.00 | 0.00 | 0.00 | 78 | 1019.6 |
| 20260506221755 | 15 | 349 | 1.6 | 1.6 | 0.00 | 0.00 | 0.00 | 78 | 1019.6 |
| 20260506221252 | 15 | 24 | 0.0 | 1.6 | 0.00 | 0.00 | 0.00 | 76 | 1019.7 |
| 20260506220750 | 15 | 21 | 0.0 | 1.6 | 0.00 | 0.00 | 0.00 | 74 | 1019.7 |
| 20260506220244 | 15 | 25 | 0.0 | 0.0 | 0.00 | 0.00 | 0.00 | 76 | 1019.5 |
| 20260506215741 | 15 | 0 | 0.0 | 1.6 | 0.00 | 0.00 | 0.00 | 77 | 1019.5 |
| 20260506215237 | 15 | 54 | 1.6 | 1.6 | 0.00 | 0.00 | 0.00 | 76 | 1019.6 |
| 20260506214733 | 15 | 31 | 0.0 | 0.0 | 0.00 | 0.00 | 0.00 | 77 | 1019.6 |
| 20260506214231 | 15 | 17 | 0.0 | 0.0 | 0.00 | 0.00 | 0.00 | 75 | 1019.7 |
| 20260506213729 | 15 | 31 | 0.0 | 0.0 | 0.00 | 0.00 | 0.00 | 75 | 1019.6 |
| 20260506213226 | 15 | 9 | 0.0 | 0.0 | 0.00 | 0.00 | 0.00 | 74 | 1019.5 |
| 20260506212723 | 15 | 38 | 0.0 | 0.0 | 0.00 | 0.00 | 0.00 | 75 | 1019.5 |
| 20260506212218 | 15 | 350 | 0.0 | 1.6 | 0.00 | 0.00 | 0.00 | 76 | 1019.4 |
| 20260506211714 | 15 | 1 | 0.0 | 1.6 | 0.00 | 0.00 | 0.00 | 76 | 1019.2 |
| 20260506211210 | 15 | 30 | 1.6 | 3.2 | 0.00 | 0.00 | 0.00 | 76 | 1019.5 |
| 20260506210708 | 14 | 347 | 0.0 | 0.0 | 0.00 | 0.00 | 0.00 | 78 | 1019.5 |
| 20260506210204 | 15 | 331 | 1.6 | 1.6 | 0.00 | 0.00 | 0.00 | 77 | 1019.3 |
| 20260506205702 | 14 | 24 | 0.0 | 0.0 | 0.00 | 0.00 | 0.00 | 77 | 1019.5 |
| 20260506205156 | 14 | 28 | 0.0 | 0.0 | 0.00 | 0.00 | 0.00 | 79 | 1019.2 |
| 20260506204654 | 14 | 11 | 0.0 | 0.0 | 0.00 | 0.00 | 0.00 | 78 | 1019.2 |
| 20260506204151 | 14 | 3 | 0.0 | 0.0 | 0.00 | 0.00 | 0.00 | 79 | 1019.3 |
| 20260506203649 | 14 | 23 | 0.0 | 0.0 | 0.00 | 0.00 | 0.00 | 79 | 1019.3 |
| 20260506203146 | 13 | 46 | 0.0 | 0.0 | 0.00 | 0.00 | 0.00 | 79 | 1019.4 |
| 20260506202644 | 13 | 92 | 3.2 | 4.8 | 0.00 | 0.00 | 0.00 | 80 | 1019.4 |
| 20260506202139 | 14 | 34 | 0.0 | 1.6 | 0.00 | 0.00 | 0.00 | 78 | 1019.3 |
| 20260506201637 | 14 | 47 | 1.6 | 1.6 | 0.00 | 0.00 | 0.00 | 78 | 1019.2 |
| 20260506201133 | 14 | 27 | 0.0 | 0.0 | 0.00 | 0.00 | 0.00 | 78 | 1019.0 |
| 20260506200630 | 14 | 34 | 0.0 | 0.0 | 0.00 | 0.00 | 0.00 | 79 | 1019.1 |
| 20260506200127 | 14 | 30 | 1.6 | 1.6 | 0.00 | 0.00 | 0.00 | 78 | 1019.2 |
| 20260506195623 | 14 | 357 | 0.0 | 0.0 | 0.00 | 0.00 | 0.00 | 78 | 1019.2 |
| 20260506195120 | 14 | 52 | 1.6 | 3.2 | 0.00 | 0.00 | 0.00 | 77 | 1019.0 |
| 20260506194617 | 13 | 320 | 0.0 | 0.0 | 0.00 | 0.00 | 0.00 | 79 | 1019.1 |
| 20260506194113 | 13 | 13 | 0.0 | 0.0 | 0.00 | 0.00 | 0.00 | 79 | 1019.2 |
| 20260506193611 | 14 | 332 | 1.6 | 1.6 | 0.00 | 0.00 | 0.00 | 78 | 1019.1 |
| 20260506193108 | 13 | 19 | 0.0 | 1.6 | 0.00 | 0.00 | 0.00 | 79 | 1019.0 |
| 20260506192605 | 13 | 314 | 0.0 | 0.0 | 0.00 | 0.00 | 0.00 | 79 | 1019.2 |
| 20260506192101 | 13 | 24 | 3.2 | 3.2 | 0.00 | 0.00 | 0.00 | 79 | 1018.9 |
| 20260506191558 | 14 | 46 | 1.6 | 3.2 | 0.00 | 0.00 | 0.00 | 78 | 1018.9 |
| 20260506191053 | 13 | 26 | 0.0 | 0.0 | 0.00 | 0.00 | 0.00 | 79 | 1018.9 |
| 20260506190551 | 13 | 27 | 1.6 | 1.6 | 0.00 | 0.00 | 0.00 | 80 | 1018.9 |
| 20260506190048 | 13 | 355 | 1.6 | 1.6 | 0.00 | 0.00 | 0.00 | 79 | 1019.0 |
| 20260506185545 | 13 | 350 | 0.0 | 0.0 | 0.00 | 0.00 | 0.00 | 80 | 1019.1 |
| 20260506185042 | 13 | 40 | 0.0 | 1.6 | 0.00 | 0.00 | 0.00 | 81 | 1018.8 |
| 20260506184539 | 13 | 21 | 0.0 | 0.0 | 0.00 | 0.00 | 0.00 | 80 | 1018.8 |
| 20260506184036 | 13 | 39 | 0.0 | 0.0 | 0.00 | 0.00 | 0.00 | 81 | 1019.0 |
| 20260506183532 | 13 | 33 | 3.2 | 4.8 | 0.00 | 0.00 | 0.00 | 81 | 1018.7 |
| 20260506183029 | 13 | 324 | 0.0 | 1.6 | 0.00 | 0.00 | 0.00 | 80 | 1019.1 |
| 20260506182526 | 13 | 337 | 3.2 | 3.2 | 0.00 | 0.00 | 0.00 | 81 | 1019.0 |
| 20260506182023 | 13 | 39 | 0.0 | 1.6 | 0.00 | 0.00 | 0.00 | 81 | 1018.8 |
| 20260506181521 | 12 | 15 | 0.0 | 1.6 | 0.00 | 0.00 | 0.00 | 82 | 1019.0 |
| 20260506181018 | 12 | 283 | 9.7 | 11.3 | 0.00 | 0.00 | 0.00 | 82 | 1018.8 |
| 20260506180514 | 13 | 317 | 4.8 | 4.8 | 0.00 | 0.00 | 0.00 | 82 | 1018.8 |
| 20260506180011 | 13 | 289 | 4.8 | 11.3 | 0.00 | 0.00 | 0.00 | 80 | 1018.5 |
| 20260506175508 | 13 | 356 | 3.2 | 3.2 | 0.00 | 0.00 | 0.00 | 78 | 1018.5 |
| 20260506175004 | 13 | 19 | 3.2 | 3.2 | 0.00 | 0.00 | 0.00 | 78 | 1018.5 |
| 20260506174503 | 14 | 318 | 3.2 | 3.2 | 0.00 | 0.00 | 0.00 | 77 | 1018.5 |
| 20260506173958 | 14 | 69 | 3.2 | 3.2 | 0.00 | 0.00 | 0.00 | 76 | 1018.9 |
| 20260506173456 | 14 | 43 | 0.0 | 0.0 | 0.00 | 0.00 | 0.00 | 77 | 1018.2 |
| 20260506172952 | 15 | 15 | 0.0 | 0.0 | 0.00 | 0.00 | 0.00 | 75 | 1018.5 |
| 20260506172450 | 14 | 10 | 0.0 | 1.6 | 0.00 | 0.00 | 0.00 | 76 | 1018.4 |
| 20260506171946 | 14 | 46 | 0.0 | 0.0 | 0.00 | 0.00 | 0.00 | 77 | 1018.3 |
| 20260506171444 | 13 | 6 | 0.0 | 0.0 | 0.00 | 0.00 | 0.00 | 78 | 1018.4 |
| 20260506170941 | 13 | 50 | 0.0 | 1.6 | 0.00 | 0.00 | 0.00 | 78 | 1018.4 |
| 20260506170437 | 13 | 35 | 0.0 | 0.0 | 0.00 | 0.00 | 0.00 | 79 | 1018.6 |
| 20260506165931 | 13 | 40 | 0.0 | 0.0 | 0.00 | 0.00 | 0.00 | 80 | 1018.6 |
| 20260506165429 | 13 | 11 | 0.0 | 1.6 | 0.00 | 0.00 | 0.00 | 80 | 1018.6 |
| 20260506164924 | 13 | 63 | 1.6 | 1.6 | 0.00 | 0.00 | 0.00 | 79 | 1018.6 |
| 20260506164421 | 13 | 35 | 0.0 | 0.0 | 0.00 | 0.00 | 0.00 | 80 | 1018.6 |
| 20260506163914 | 13 | 4 | 0.0 | 0.0 | 0.00 | 0.00 | 0.00 | 81 | 1018.4 |
| 20260506163408 | 13 | 8 | 0.0 | 0.0 | 0.00 | 0.00 | 0.00 | 80 | 1018.6 |
| 20260506162903 | 13 | 61 | 1.6 | 1.6 | 0.00 | 0.00 | 0.00 | 80 | 1018.6 |
| 20260506162401 | 13 | 4 | 0.0 | 1.6 | 0.00 | 0.00 | 0.00 | 80 | 1018.5 |
| 20260506161858 | 13 | 64 | 1.6 | 3.2 | 0.00 | 0.00 | 0.00 | 81 | 1018.4 |
| 20260506161356 | 13 | 43 | 3.2 | 3.2 | 0.00 | 0.00 | 0.00 | 80 | 1018.2 |
| 20260506160853 | 13 | 8 | 0.0 | 0.0 | 0.00 | 0.00 | 0.00 | 82 | 1018.4 |
| 20260506160350 | 13 | 344 | 0.0 | 0.0 | 0.00 | 0.00 | 0.00 | 82 | 1018.2 |
| 20260506155848 | 13 | 51 | 1.6 | 1.6 | 0.00 | 0.00 | 0.00 | 83 | 1018.0 |
| 20260506155345 | 12 | 72 | 1.6 | 3.2 | 0.00 | 0.00 | 0.00 | 83 | 1018.0 |
| 20260506153502 | 12 | 17 | 0.0 | 0.0 | 0.00 | 0.00 | 0.00 | 85 | 1018.3 |
| 20260506153000 | 12 | 8 | 0.0 | 1.6 | 0.00 | 0.00 | 0.00 | 85 | 1018.1 |
| 20260506152456 | 12 | 347 | 0.0 | 0.0 | 0.00 | 0.00 | 0.00 | 87 | 1018.2 |
| 20260506151955 | 12 | 347 | 0.0 | 0.0 | 0.00 | 0.00 | 0.00 | 88 | 1018.0 |
| 20260506151452 | 12 | 348 | 0.0 | 0.0 | 0.00 | 0.00 | 0.00 | 89 | 1018.3 |
| 20260506150949 | 12 | 347 | 0.0 | 0.0 | 0.00 | 0.00 | 0.00 | 89 | 1018.5 |
| 20260506150445 | 12 | 347 | 0.0 | 0.0 | 0.00 | 0.00 | 0.00 | 89 | 1018.4 |
| 20260506145942 | 12 | 347 | 0.0 | 0.0 | 0.00 | 0.00 | 0.00 | 89 | 1018.3 |
| 20260506145438 | 12 | 6 | 0.0 | 0.0 | 0.00 | 0.00 | 0.00 | 89 | 1018.4 |
| 20260506144937 | 12 | 24 | 0.0 | 0.0 | 0.00 | 0.00 | 0.00 | 89 | 1018.2 |
| 20260506144433 | 11 | 24 | 0.0 | 0.0 | 0.00 | 0.00 | 0.00 | 90 | 1018.2 |
| 20260506143931 | 11 | 4 | 3.2 | 3.2 | 0.00 | 0.00 | 0.00 | 91 | 1017.9 |
| 20260506143428 | 11 | 14 | 0.0 | 0.0 | 0.00 | 0.00 | 0.00 | 91 | 1018.0 |
| 20260506142926 | 11 | 6 | 0.0 | 0.0 | 0.00 | 0.00 | 0.00 | 91 | 1018.1 |
| 20260506142424 | 11 | 16 | 0.0 | 1.6 | 0.00 | 0.00 | 0.00 | 91 | 1017.7 |
| 20260506141921 | 11 | 22 | 0.0 | 1.6 | 0.00 | 0.00 | 0.00 | 91 | 1017.7 |
| 20260506141419 | 11 | 331 | 3.2 | 3.2 | 0.00 | 0.00 | 0.00 | 92 | 1017.9 |
| 20260506140918 | 11 | 299 | 4.8 | 4.8 | 0.00 | 0.00 | 0.00 | 92 | 1017.6 |
| 20260506140414 | 11 | 10 | 1.6 | 1.6 | 0.00 | 0.00 | 0.00 | 92 | 1017.6 |
| 20260506135911 | 11 | 349 | 1.6 | 1.6 | 0.00 | 0.00 | 0.00 | 93 | 1017.8 |
| 20260506135408 | 11 | 338 | 1.6 | 3.2 | 0.00 | 0.00 | 0.00 | 93 | 1017.8 |
| 20260506134904 | 11 | 298 | 4.8 | 8.0 | 0.00 | 0.00 | 0.00 | 93 | 1017.6 |
| 20260506134400 | 11 | 298 | 4.8 | 8.0 | 0.00 | 0.00 | 0.00 | 93 | 1017.6 |
| 20260506133857 | 11 | 354 | 0.0 | 1.6 | 0.00 | 0.00 | 0.00 | 93 | 1017.6 |
| 20260506133354 | 11 | 21 | 0.0 | 1.6 | 0.00 | 0.00 | 0.00 | 93 | 1017.6 |
| 20260506132850 | 11 | 322 | 0.0 | 1.6 | 0.00 | 0.00 | 0.00 | 94 | 1017.8 |
| 20260506132348 | 11 | 330 | 1.6 | 3.2 | 0.00 | 0.00 | 0.00 | 94 | 1017.6 |
| 20260506131846 | 11 | 17 | 0.0 | 1.6 | 0.00 | 0.00 | 0.00 | 94 | 1017.7 |
| 20260506131342 | 11 | 324 | 1.6 | 1.6 | 0.00 | 0.00 | 0.00 | 94 | 1017.6 |
| 20260506130840 | 11 | 294 | 3.2 | 3.2 | 0.00 | 0.00 | 0.00 | 94 | 1017.4 |
| 20260506130336 | 11 | 322 | 0.0 | 0.0 | 0.00 | 0.00 | 0.00 | 95 | 1017.7 |
| 20260506125834 | 11 | 322 | 0.0 | 0.0 | 0.00 | 0.00 | 0.00 | 95 | 1017.7 |
| 20260506125332 | 11 | 316 | 0.0 | 0.0 | 0.00 | 0.00 | 0.00 | 95 | 1017.5 |
| 20260506124830 | 11 | 315 | 0.0 | 0.0 | 0.00 | 0.00 | 0.00 | 95 | 1017.3 |
| 20260506124326 | 11 | 314 | 1.6 | 1.6 | 0.00 | 0.00 | 0.00 | 95 | 1017.2 |
| 20260506123824 | 11 | 349 | 1.6 | 1.6 | 0.00 | 0.00 | 0.00 | 94 | 1017.3 |
| 20260506123322 | 11 | 29 | 0.0 | 0.0 | 0.00 | 0.00 | 0.00 | 94 | 1017.4 |
| 20260506122819 | 11 | 29 | 0.0 | 0.0 | 0.00 | 0.00 | 0.00 | 94 | 1017.5 |
| 20260506122316 | 11 | 29 | 0.0 | 0.0 | 0.00 | 0.00 | 0.00 | 94 | 1017.4 |
| 20260506121814 | 11 | 21 | 0.0 | 0.0 | 0.00 | 0.00 | 0.00 | 94 | 1017.2 |
| 20260506121311 | 11 | 29 | 0.0 | 0.0 | 0.00 | 0.00 | 0.00 | 94 | 1017.2 |
| 20260506120808 | 11 | 29 | 0.0 | 0.0 | 0.00 | 0.00 | 0.00 | 94 | 1017.4 |
| 20260506120306 | 11 | 29 | 0.0 | 0.0 | 0.00 | 0.00 | 0.00 | 94 | 1017.2 |
| 20260506115803 | 11 | 29 | 1.6 | 1.6 | 0.00 | 0.00 | 0.00 | 94 | 1017.3 |
| 20260506115306 | 11 | 36 | 0.0 | 0.0 | 0.00 | 0.00 | 0.00 | 94 | 1017.2 |
| 20260506114759 | 11 | 351 | 0.0 | 0.0 | 0.00 | 0.00 | 0.00 | 94 | 1017.2 |
| 20260506114257 | 11 | 351 | 0.0 | 0.0 | 0.00 | 0.00 | 0.00 | 94 | 1017.1 |
| 20260506113755 | 11 | 351 | 0.0 | 0.0 | 0.00 | 0.00 | 0.00 | 94 | 1016.9 |
| 20260506113252 | 11 | 317 | 0.0 | 0.0 | 0.00 | 0.00 | 0.00 | 94 | 1017.0 |
| 20260506112748 | 11 | 338 | 1.6 | 1.6 | 0.00 | 0.00 | 0.00 | 94 | 1016.9 |
| 20260506112246 | 11 | 329 | 0.0 | 0.0 | 0.00 | 0.00 | 0.00 | 94 | 1016.9 |
| 20260506111743 | 11 | 329 | 0.0 | 0.0 | 0.00 | 0.00 | 0.00 | 94 | 1017.0 |
| 20260506111241 | 11 | 329 | 0.0 | 0.0 | 0.00 | 0.00 | 0.00 | 94 | 1017.0 |
| 20260506110738 | 11 | 329 | 0.0 | 0.0 | 0.00 | 0.00 | 0.00 | 94 | 1016.8 |
| 20260506110236 | 11 | 329 | 0.0 | 0.0 | 0.00 | 0.00 | 0.00 | 94 | 1016.6 |
| 20260506105732 | 11 | 328 | 0.0 | 0.0 | 0.00 | 0.00 | 0.00 | 94 | 1016.9 |
| 20260506105229 | 11 | 328 | 0.0 | 0.0 | 0.00 | 0.00 | 0.00 | 94 | 1016.7 |
| 20260506104727 | 11 | 326 | 0.0 | 0.0 | 0.00 | 0.00 | 0.00 | 94 | 1016.9 |
| 20260506104224 | 11 | 19 | 0.0 | 0.0 | 0.00 | 0.00 | 0.00 | 94 | 1016.8 |
| 20260506103721 | 11 | 38 | 0.0 | 0.0 | 0.00 | 0.00 | 0.00 | 94 | 1016.7 |
| 20260506103218 | 11 | 3 | 0.0 | 0.0 | 0.00 | 0.00 | 0.00 | 94 | 1016.7 |
| 20260506102716 | 11 | 22 | 0.0 | 0.0 | 0.00 | 0.00 | 0.00 | 95 | 1016.7 |
| 20260506102214 | 11 | 23 | 0.0 | 0.0 | 0.00 | 0.00 | 0.00 | 95 | 1016.6 |
| 20260506101710 | 11 | 23 | 0.0 | 0.0 | 0.00 | 0.00 | 0.00 | 95 | 1016.7 |
| 20260506101207 | 11 | 23 | 0.0 | 0.0 | 0.00 | 0.00 | 0.00 | 95 | 1016.5 |
| 20260506100705 | 11 | 23 | 0.0 | 0.0 | 0.00 | 0.00 | 0.00 | 95 | 1016.6 |
| 20260506100203 | 11 | 23 | 0.0 | 0.0 | 0.00 | 0.00 | 0.00 | 95 | 1016.4 |
| 20260506095701 | 11 | 23 | 0.0 | 0.0 | 0.00 | 0.00 | 0.00 | 96 | 1016.3 |
| 20260506095158 | 11 | 22 | 0.0 | 0.0 | 0.00 | 0.00 | 0.00 | 96 | 1016.3 |
| 20260506094655 | 11 | 23 | 0.0 | 0.0 | 0.00 | 0.00 | 0.00 | 97 | 1016.2 |
| 20260506094153 | 11 | 23 | 0.0 | 0.0 | 0.00 | 0.00 | 0.00 | 97 | 1016.3 |
| 20260506093651 | 11 | 23 | 0.0 | 0.0 | 0.00 | 0.00 | 0.00 | 97 | 1016.1 |
| 20260506093148 | 11 | 23 | 0.0 | 0.0 | 0.00 | 0.00 | 0.00 | 97 | 1016.1 |
| 20260506092646 | 11 | 23 | 0.0 | 0.0 | 0.00 | 0.00 | 0.00 | 97 | 1015.9 |
| 20260506092143 | 11 | 23 | 0.0 | 0.0 | 0.00 | 0.00 | 0.00 | 97 | 1016.2 |
| 20260506091641 | 11 | 23 | 0.0 | 0.0 | 0.00 | 0.00 | 0.00 | 97 | 1016.4 |
| 20260506091138 | 11 | 22 | 0.0 | 0.0 | 0.00 | 0.00 | 0.00 | 97 | 1016.2 |
| 20260506090636 | 10 | 23 | 0.0 | 0.0 | 0.00 | 0.00 | 0.00 | 98 | 1016.2 |
| 20260506090132 | 10 | 23 | 0.0 | 0.0 | 0.00 | 0.00 | 0.00 | 98 | 1016.2 |
| 20260506085629 | 10 | 23 | 0.0 | 0.0 | 0.00 | 0.00 | 0.00 | 98 | 1016.2 |
| 20260506085125 | 10 | 23 | 0.0 | 0.0 | 0.00 | 0.00 | 0.00 | 98 | 1016.3 |
| 20260506084622 | 10 | 23 | 0.0 | 0.0 | 0.00 | 0.00 | 0.00 | 98 | 1016.1 |
| 20260506084119 | 10 | 23 | 0.0 | 0.0 | 0.00 | 0.00 | 0.00 | 99 | 1016.0 |
| 20260506083616 | 10 | 23 | 0.0 | 0.0 | 0.00 | 0.00 | 0.00 | 99 | 1016.0 |
| 20260506083113 | 10 | 23 | 0.0 | 0.0 | 0.00 | 0.00 | 0.00 | 99 | 1016.0 |
| 20260506082610 | 10 | 22 | 0.0 | 0.0 | 0.00 | 0.00 | 0.00 | 99 | 1015.9 |
| 20260506082105 | 10 | 23 | 0.0 | 0.0 | 0.00 | 0.00 | 0.00 | 99 | 1015.8 |
| 20260506081604 | 10 | 23 | 0.0 | 0.0 | 0.00 | 0.00 | 0.00 | 99 | 1015.8 |
| 20260506081101 | 10 | 22 | 0.0 | 0.0 | 0.00 | 0.00 | 0.00 | 99 | 1015.6 |
| 20260506080559 | 10 | 23 | 0.0 | 0.0 | 0.00 | 0.00 | 0.00 | 99 | 1015.6 |
| 20260506073039 | 10 | 25 | 0.0 | 0.0 | 0.00 | 0.00 | 0.00 | 99 | 1015.4 |
| 20260506072536 | 10 | 25 | 0.0 | 0.0 | 0.00 | 0.00 | 0.00 | 99 | 1015.3 |
| 20260506072034 | 10 | 25 | 0.0 | 0.0 | 0.00 | 0.00 | 0.00 | 98 | 1015.5 |
| 20260506071531 | 10 | 26 | 0.0 | 0.0 | 0.00 | 0.00 | 0.00 | 98 | 1015.3 |
| 20260506071028 | 10 | 25 | 0.0 | 0.0 | 0.00 | 0.00 | 0.00 | 98 | 1015.4 |
| 20260506070526 | 10 | 25 | 0.0 | 0.0 | 0.00 | 0.00 | 0.00 | 98 | 1015.3 |
| 20260506062503 | 10 | 25 | 0.0 | 0.0 | 0.00 | 0.00 | 0.00 | 97 | 1015.1 |
| 20260506061959 | 10 | 26 | 0.0 | 0.0 | 0.00 | 0.00 | 0.00 | 97 | 1014.9 |
| 20260506061455 | 10 | 26 | 0.0 | 0.0 | 0.00 | 0.00 | 0.00 | 97 | 1014.9 |
| 20260506060953 | 11 | 26 | 0.0 | 0.0 | 0.00 | 0.00 | 0.00 | 97 | 1014.9 |
| 20260506060451 | 11 | 26 | 0.0 | 0.0 | 0.00 | 0.00 | 0.00 | 97 | 1014.9 |
| 20260506050920 | 11 | 26 | 0.0 | 0.0 | 0.00 | 0.00 | 0.00 | 94 | 1014.5 |
| 20260506050418 | 11 | 26 | 0.0 | 0.0 | 0.00 | 0.00 | 0.00 | 94 | 1014.4 |
| 20260506044908 | 12 | 26 | 0.0 | 0.0 | 0.00 | 0.00 | 0.00 | 93 | 1014.2 |
| 20260506044406 | 12 | 26 | 0.0 | 0.0 | 0.00 | 0.00 | 0.00 | 93 | 1014.5 |
| 20260506043903 | 12 | 26 | 0.0 | 0.0 | 0.00 | 0.00 | 0.00 | 93 | 1014.4 |
| 20260506043400 | 12 | 26 | 0.0 | 0.0 | 0.00 | 0.00 | 0.00 | 92 | 1014.2 |
| 20260506042858 | 12 | 26 | 0.0 | 0.0 | 0.00 | 0.00 | 0.00 | 91 | 1014.4 |
| 20260506042357 | 12 | 26 | 0.0 | 0.0 | 0.00 | 0.00 | 0.00 | 91 | 1014.3 |
| 20260506041855 | 12 | 26 | 0.0 | 0.0 | 0.00 | 0.00 | 0.00 | 91 | 1014.2 |
| 20260506041352 | 13 | 26 | 0.0 | 0.0 | 0.00 | 0.00 | 0.00 | 90 | 1014.1 |
| 20260506040849 | 13 | 26 | 0.0 | 0.0 | 0.00 | 0.00 | 0.00 | 89 | 1014.0 |
| 20260506040347 | 13 | 26 | 0.0 | 0.0 | 0.00 | 0.00 | 0.00 | 89 | 1014.2 |
| 20260506035843 | 13 | 26 | 0.0 | 0.0 | 0.00 | 0.00 | 0.00 | 89 | 1014.1 |
| 20260506035340 | 13 | 26 | 0.0 | 0.0 | 0.00 | 0.00 | 0.00 | 89 | 1014.0 |
| 20260506034837 | 13 | 13 | 0.0 | 0.0 | 0.00 | 0.00 | 0.00 | 88 | 1013.8 |
| 20260506034334 | 13 | 13 | 0.0 | 0.0 | 0.00 | 0.00 | 0.00 | 88 | 1013.8 |
| 20260506033831 | 13 | 13 | 0.0 | 0.0 | 0.00 | 0.00 | 0.00 | 87 | 1013.9 |
| 20260506033328 | 14 | 44 | 0.0 | 0.0 | 0.00 | 0.00 | 0.00 | 86 | 1013.9 |
| 20260506032825 | 14 | 44 | 0.0 | 0.0 | 0.00 | 0.00 | 0.00 | 86 | 1013.8 |
| 20260506032322 | 15 | 44 | 0.0 | 0.0 | 0.00 | 0.00 | 0.00 | 84 | 1013.5 |
| 20260506031819 | 15 | 44 | 0.0 | 0.0 | 0.00 | 0.00 | 0.00 | 83 | 1013.6 |
| 20260506031316 | 15 | 44 | 0.0 | 0.0 | 0.00 | 0.00 | 0.00 | 83 | 1013.4 |
| 20260506030814 | 15 | 44 | 0.0 | 0.0 | 0.00 | 0.00 | 0.00 | 81 | 1013.3 |
| 20260506030312 | 15 | 45 | 1.6 | 1.6 | 0.00 | 0.00 | 0.00 | 80 | 1013.5 |
| 20260506025808 | 15 | 43 | 0.0 | 0.0 | 0.00 | 0.00 | 0.00 | 80 | 1013.4 |
| 20260506025306 | 16 | 37 | 0.0 | 0.0 | 0.00 | 0.00 | 0.00 | 79 | 1013.5 |
| 20260506024802 | 16 | 42 | 0.0 | 0.0 | 0.00 | 0.00 | 0.00 | 79 | 1013.4 |
| 20260506024258 | 16 | 38 | 0.0 | 0.0 | 0.00 | 0.00 | 0.00 | 79 | 1013.4 |
| 20260506023754 | 16 | 23 | 0.0 | 0.0 | 0.00 | 0.00 | 0.00 | 78 | 1013.4 |
| 20260506023252 | 16 | 24 | 0.0 | 0.0 | 0.00 | 0.00 | 0.00 | 76 | 1013.2 |
| 20260506022748 | 16 | 47 | 0.0 | 0.0 | 0.00 | 0.00 | 0.00 | 76 | 1013.5 |
| 20260506022246 | 16 | 47 | 0.0 | 0.0 | 0.00 | 0.00 | 0.00 | 75 | 1013.4 |
| 20260506021744 | 16 | 33 | 0.0 | 0.0 | 0.00 | 0.00 | 0.00 | 76 | 1013.4 |
| 20260506021241 | 17 | 33 | 0.0 | 0.0 | 0.00 | 0.00 | 0.00 | 76 | 1013.4 |
| 20260506020737 | 17 | 35 | 0.0 | 0.0 | 0.00 | 0.00 | 0.00 | 75 | 1013.4 |
| 20260506020235 | 17 | 5 | 1.6 | 1.6 | 0.00 | 0.00 | 0.00 | 75 | 1013.5 |
| 20260506015733 | 17 | 45 | 1.6 | 3.2 | 0.00 | 0.00 | 0.00 | 74 | 1013.5 |
| 20260506015230 | 17 | 44 | 1.6 | 1.6 | 0.00 | 0.00 | 0.00 | 74 | 1013.4 |